Flag for Macedonia, Republic of Weather past 2 weeks in Skopje, Macedonia, Republic of

Now
45 °F

Light rain. Mostly cloudy.


Feels Like: 40 °F
Forecast: 45 / 57 °F
Wind: 8 mph from Northeast

Location: Skopje-Petrovec


UV Index: 0 (Low)

Visibility: N/A


Pressure: 29.80 "Hg

Humidity: 81%

Dew point: 39 °F

Location of SkopjeLocation

Historic Weather in Skopje

°F

Skopje temperature yesterday

Maximum temperature yesterday: 55 °F (at 4:00 PM)
Minimum temperature yesterday: 36 °F (at 5:30 AM)
Average temperature yesterday: 44 °F

Past Weeks' High & Low Weather Summary

 TemperatureHumidityPressure
High73 °F (Apr 8, 5:00 PM)100% (Apr 6, 5:00 AM)30.21 "Hg (Apr 6, 5:00 AM)
Low34 °F (Apr 12, 2:00 AM)29% (Apr 8, 5:00 PM)29.74 "Hg (Apr 5, 3:00 PM)
Average51 °F73%29.95 "Hg
* Reported Apr 3 1:00 AM — Apr 18 1:00 AM, Skopje, Weather by CustomWeather, © 2014

Note: Actual official high and low records may vary slightly from our data, if they occured in-between our weather recording intervals... More about our weather records

Advertising

Historic Weather Conditions — Data for Previous 24 hours

 ConditionsComfort  
Time TempWeatherWind HumidityBarometerVisibility
1:00 AM
Apr 18
45 °FLight rain. Mostly cloudy.8 mph81%29.80 "HgN/A
12:00 AM45 °FLight rain. Mostly cloudy.8 mph81%29.80 "HgN/A
11:30 PM
Apr 17
45 °FLight rain. Mostly cloudy.8 mph81%29.80 "HgN/A
11:00 PM45 °FLight rain. Mostly cloudy.3 mph81%29.80 "HgN/A
10:30 PM45 °FPartly cloudy.9 mph87%29.80 "HgN/A
10:00 PM45 °FPartly cloudy.9 mph87%29.80 "HgN/A
9:30 PM45 °FLight rain. Partly cloudy.9 mph87%29.80 "HgN/A
9:00 PM46 °FPartly cloudy.12 mph82%29.83 "HgN/A
8:30 PM46 °FPartly cloudy.14 mph82%29.80 "HgN/A
8:00 PM46 °FBroken clouds.15 mph76%29.80 "HgN/A
7:00 PM48 °FBroken clouds.15 mph71%29.80 "HgN/A
6:30 PM50 °FBroken clouds.17 mph71%29.80 "HgN/A
6:00 PM52 °FPartly sunny.16 mph67%29.80 "HgN/A
5:30 PM52 °FPartly sunny.13 mph67%29.80 "HgN/A
5:00 PM54 °FPassing clouds.2 mph58%29.80 "HgN/A
4:30 PM55 °FScattered clouds.5 mph55%29.80 "HgN/A
4:00 PM55 °FScattered clouds.2 mph55%29.80 "HgN/A
3:30 PM52 °FScattered clouds.3 mph58%29.83 "HgN/A
3:00 PM54 °FScattered clouds.2 mph54%29.80 "HgN/A
2:30 PM52 °FScattered clouds.2 mph58%29.83 "HgN/A
2:00 PM52 °FScattered clouds.2 mph58%29.83 "HgN/A
1:30 PM52 °FPartly sunny.3 mph62%29.83 "HgN/A
1:00 PM50 °FPartly sunny.1 mph62%29.86 "HgN/A
12:30 PM48 °FPartly sunny.1 mph66%29.86 "HgN/A
12:00 PM48 °FPartly sunny.1 mph62%29.86 "HgN/A
11:30 AM48 °FPartly sunny.1 mph62%29.86 "HgN/A
11:00 AM46 °FPartly sunny.1 mph66%29.86 "HgN/A
10:30 AM46 °FScattered clouds.1 mph66%29.86 "HgN/A
10:00 AM45 °FScattered clouds.1 mph76%29.86 "HgN/A
9:30 AM45 °FScattered clouds.No wind76%29.86 "HgN/A
9:00 AM43 °FScattered clouds.1 mph81%29.86 "HgN/A
8:30 AM41 °FScattered clouds.1 mph81%29.86 "HgN/A
8:00 AM39 °FScattered clouds.No wind87%29.86 "HgN/A
7:30 AM37 °FScattered clouds.No wind93%29.86 "HgN/A
7:00 AM36 °FPassing clouds.1 mph100%29.86 "HgN/A
6:30 AM36 °FPassing clouds.1 mph93%29.86 "HgN/A
6:00 AM36 °FPassing clouds.1 mph93%29.86 "HgN/A
5:30 AM36 °FPartly cloudy.2 mph93%29.86 "HgN/A
5:00 AM37 °FPartly cloudy.5 mph87%29.86 "HgN/A
4:30 AM37 °FMostly cloudy.1 mph93%29.83 "HgN/A
4:00 AM37 °FMostly cloudy.1 mph93%29.83 "HgN/A
3:30 AM37 °FMostly cloudy.1 mph93%29.83 "HgN/A
3:00 AM37 °FMostly cloudy.2 mph93%29.86 "HgN/A
2:30 AM37 °FMostly cloudy.1 mph93%29.86 "HgN/A
2:00 AM37 °FMostly cloudy.2 mph93%29.86 "HgN/A
Weather by CustomWeather, © 2014

See weather overview